BAW457 LEMD-EGLL

Flight info

Callsign BAW457
Flight time N/A
Altitude 34000
Route SIE N858 DGO N867 NENEM DCT DIDIG UP87 ROXOG
Aircraft A321/M-SDE3FGHIRWY/LB1

Departure

Time N/A
Airport Adolfo Suárez Madrid–Barajas Airport (LEMD)

Arrival

Time 2026-05-07 17:30
Airport London Heathrow Airport (EGLL)
Time Latitude Longitude Altitude Speed Heading
2026-05-07 16:54 48.55112 -1.74740 34015 ft 454 kts 358°
2026-05-07 16:54 48.61428 -1.74829 34018 ft 454 kts 357°
2026-05-07 16:55 48.67746 -1.74917 34016 ft 454 kts 358°
2026-05-07 16:55 48.74067 -1.74982 34024 ft 454 kts 358°
2026-05-07 16:56 48.80287 -1.75059 34032 ft 454 kts 358°
2026-05-07 16:56 48.89397 -1.75170 34031 ft 454 kts 358°
2026-05-07 16:57 48.95716 -1.75137 34034 ft 454 kts 359°
2026-05-07 16:57 49.02038 -1.74855 34036 ft 454 kts
2026-05-07 16:58 49.08353 -1.74536 34026 ft 454 kts 360°
2026-05-07 16:58 49.14628 -1.74273 34028 ft 454 kts 359°
2026-05-07 16:59 49.20945 -1.74042 34025 ft 454 kts 359°
2026-05-07 16:59 49.27258 -1.73812 34037 ft 454 kts 359°
2026-05-07 17:00 49.33567 -1.73561 34040 ft 453 kts 359°
2026-05-07 17:00 49.39871 -1.73326 34041 ft 453 kts 359°
2026-05-07 17:01 49.46174 -1.73084 34044 ft 453 kts 359°
2026-05-07 17:01 49.52474 -1.72843 34045 ft 453 kts 359°
2026-05-07 17:02 49.58773 -1.72600 34045 ft 453 kts 359°
2026-05-07 17:02 49.65072 -1.72230 34048 ft 453 kts
2026-05-07 17:03 49.71361 -1.71640 34045 ft 453 kts
2026-05-07 17:03 49.77652 -1.71045 34047 ft 453 kts
2026-05-07 17:04 49.83940 -1.70504 34048 ft 453 kts
2026-05-07 17:04 49.89603 -1.70040 34031 ft 454 kts
2026-05-07 17:05 49.92759 -1.69774 33564 ft 456 kts
2026-05-07 17:05 49.95971 -1.69504 32352 ft 468 kts
2026-05-07 17:05 49.99206 -1.69106 31860 ft 463 kts
2026-05-07 17:05 50.02337 -1.68052 31351 ft 459 kts 15°
2026-05-07 17:06 50.05370 -1.66576 30817 ft 455 kts 16°
2026-05-07 17:06 50.08370 -1.65112 30290 ft 450 kts 15°
2026-05-07 17:06 50.11349 -1.63667 29764 ft 446 kts 15°
2026-05-07 17:06 50.14294 -1.62238 29239 ft 441 kts 15°
2026-05-07 17:07 50.17206 -1.60822 28726 ft 437 kts 16°
2026-05-07 17:07 50.20086 -1.59419 28219 ft 432 kts 16°
2026-05-07 17:07 50.22938 -1.58030 27715 ft 427 kts 16°
2026-05-07 17:07 50.25756 -1.56657 27230 ft 422 kts 16°
2026-05-07 17:08 50.28544 -1.55299 26739 ft 417 kts 16°
2026-05-07 17:08 50.31295 -1.53960 26278 ft 412 kts 16°
2026-05-07 17:08 50.34021 -1.52629 25815 ft 408 kts 16°
2026-05-07 17:08 50.36706 -1.51308 25370 ft 403 kts 16°
2026-05-07 17:09 50.39368 -1.49994 24927 ft 399 kts 16°
2026-05-07 17:09 50.41965 -1.48716 24512 ft 394 kts 16°
2026-05-07 17:09 50.44563 -1.47442 24105 ft 389 kts 16°
2026-05-07 17:09 50.47133 -1.46185 23687 ft 385 kts 16°
2026-05-07 17:10 50.49702 -1.44921 23272 ft 380 kts 16°
2026-05-07 17:10 50.52206 -1.43686 22873 ft 375 kts 16°
2026-05-07 17:10 50.54613 -1.42178 22463 ft 372 kts 26°
2026-05-07 17:10 50.56875 -1.40240 22066 ft 369 kts 28°
2026-05-07 17:11 50.59123 -1.38304 21649 ft 367 kts 28°
2026-05-07 17:11 50.61359 -1.36389 21239 ft 365 kts 28°
2026-05-07 17:11 50.63578 -1.34488 20816 ft 362 kts 28°
2026-05-07 17:11 50.65784 -1.32599 20377 ft 359 kts 28°
2026-05-07 17:12 50.67973 -1.30722 19963 ft 357 kts 28°
2026-05-07 17:12 50.70114 -1.28879 19536 ft 354 kts 28°
2026-05-07 17:12 50.72297 -1.26987 19098 ft 352 kts 28°
2026-05-07 17:12 50.74436 -1.25133 18665 ft 349 kts 28°
2026-05-07 17:13 50.76525 -1.23311 18243 ft 347 kts 29°
2026-05-07 17:13 50.78589 -1.21349 17813 ft 345 kts 32°
2026-05-07 17:13 50.80598 -1.19296 17385 ft 343 kts 33°
2026-05-07 17:13 50.82575 -1.17210 16954 ft 340 kts 33°
2026-05-07 17:14 50.84532 -1.15127 16535 ft 338 kts 33°
2026-05-07 17:14 50.86479 -1.13062 16112 ft 336 kts 33°
2026-05-07 17:14 50.88416 -1.11031 15695 ft 333 kts 33°
2026-05-07 17:14 50.90345 -1.09023 15185 ft 332 kts 33°
2026-05-07 17:15 50.92323 -1.06970 14306 ft 345 kts 33°
2026-05-07 17:15 50.94314 -1.04906 14022 ft 343 kts 33°
2026-05-07 17:15 50.96317 -1.02828 13770 ft 344 kts 33°
2026-05-07 17:15 50.98327 -1.00737 13218 ft 347 kts 33°
2026-05-07 17:16 51.00274 -0.98579 13029 ft 339 kts 40°
2026-05-07 17:16 51.01938 -0.95941 13057 ft 340 kts 49°
2026-05-07 17:16 51.03512 -0.93137 13053 ft 340 kts 49°
2026-05-07 17:16 51.05089 -0.90336 13054 ft 340 kts 49°
2026-05-07 17:17 51.06667 -0.87533 13054 ft 340 kts 49°
2026-05-07 17:17 51.08244 -0.84730 13009 ft 340 kts 49°
2026-05-07 17:17 51.09836 -0.81893 12171 ft 349 kts 49°
2026-05-07 17:17 51.11448 -0.79015 11225 ft 345 kts 49°
2026-05-07 17:18 51.12990 -0.76261 10817 ft 319 kts 49°
2026-05-07 17:18 51.14419 -0.73707 10291 ft 302 kts 48°
2026-05-07 17:18 51.15798 -0.71233 9585 ft 295 kts 48°
2026-05-07 17:18 51.17130 -0.68838 9309 ft 287 kts 48°
2026-05-07 17:19 51.18469 -0.66438 9187 ft 291 kts 48°
2026-05-07 17:19 51.19811 -0.64033 8983 ft 290 kts 48°
2026-05-07 17:19 51.21144 -0.61638 8667 ft 288 kts 48°
2026-05-07 17:19 51.22464 -0.59255 8341 ft 286 kts 48°
2026-05-07 17:20 51.23770 -0.56890 8081 ft 282 kts 48°
2026-05-07 17:20 51.24630 -0.55332 8041 ft 280 kts 48°
2026-05-07 17:20 51.25906 -0.53100 8046 ft 264 kts 41°
2026-05-07 17:20 51.27446 -0.51783 8046 ft 245 kts 10°
2026-05-07 17:21 51.29081 -0.51916 8076 ft 236 kts 339°
2026-05-07 17:21 51.30398 -0.53386 8052 ft 233 kts 307°
2026-05-07 17:21 51.31248 -0.55588 8054 ft 233 kts 297°
2026-05-07 17:21 51.31983 -0.57841 8051 ft 225 kts 296°
2026-05-07 17:22 51.32692 -0.60054 8063 ft 222 kts 296°
2026-05-07 17:22 51.33396 -0.62256 8045 ft 223 kts 296°
2026-05-07 17:22 51.34100 -0.64462 7816 ft 222 kts 296°
2026-05-07 17:22 51.34799 -0.66654 7504 ft 220 kts 296°
2026-05-07 17:23 51.35489 -0.68827 7219 ft 219 kts 296°
2026-05-07 17:23 51.36177 -0.71000 6927 ft 218 kts 296°
2026-05-07 17:23 51.36864 -0.73152 6613 ft 217 kts 296°
2026-05-07 17:23 51.37547 -0.75303 6312 ft 216 kts 296°
2026-05-07 17:24 51.38226 -0.77444 6013 ft 215 kts 296°
2026-05-07 17:24 51.39148 -0.79299 5702 ft 215 kts 325°
2026-05-07 17:24 51.40558 -0.80040 5344 ft 218 kts 355°
2026-05-07 17:24 51.42077 -0.80090 4944 ft 219 kts
2026-05-07 17:25 51.43608 -0.80044 4543 ft 221 kts
2026-05-07 17:25 51.45143 -0.79965 4140 ft 222 kts
2026-05-07 17:25 51.46553 -0.79064 3747 ft 219 kts 40°
2026-05-07 17:25 51.47422 -0.77163 3521 ft 207 kts 70°
2026-05-07 17:26 51.47611 -0.75005 3305 ft 190 kts 90°
2026-05-07 17:26 51.47623 -0.72903 3044 ft 187 kts 90°
2026-05-07 17:26 51.47636 -0.70825 2797 ft 185 kts 90°
2026-05-07 17:26 51.47648 -0.68772 2549 ft 178 kts 90°
2026-05-07 17:27 51.47659 -0.66857 2324 ft 168 kts 91°
2026-05-07 17:27 51.47670 -0.65036 2101 ft 157 kts 91°
2026-05-07 17:27 51.47679 -0.63329 1892 ft 151 kts 92°
2026-05-07 17:27 51.47687 -0.61652 1704 ft 149 kts 92°
2026-05-07 17:28 51.47696 -0.59994 1510 ft 148 kts 92°
2026-05-07 17:28 51.47704 -0.58349 1312 ft 147 kts 93°
2026-05-07 17:28 51.47712 -0.56710 1111 ft 147 kts 93°
2026-05-07 17:28 51.47720 -0.55071 926 ft 146 kts 93°
2026-05-07 17:29 51.47727 -0.53462 732 ft 144 kts 93°
2026-05-07 17:29 51.47734 -0.51866 540 ft 143 kts 92°
2026-05-07 17:29 51.47741 -0.50275 355 ft 142 kts 92°
2026-05-07 17:29 51.47747 -0.48695 164 ft 142 kts 92°
2026-05-07 17:30 51.47749 -0.47240 85 ft 102 kts 89°
2026-05-07 17:30 51.47757 -0.46479 92 ft 46 kts 90°
2026-05-07 17:30 51.47719 -0.46161 88 ft 9 kts 140°
2026-05-07 17:30 51.47675 -0.46119 90 ft 8 kts 147°
2026-05-07 17:31 51.47631 -0.46074 86 ft 0 kts 148°
2026-05-07 17:31 51.47630 -0.46072 90 ft 2 kts 149°
2026-05-07 17:32 51.47596 -0.46115 86 ft 12 kts 261°
2026-05-07 17:32 51.47594 -0.46261 86 ft 14 kts 269°
2026-05-07 17:32 51.47593 -0.46412 88 ft 11 kts 271°
2026-05-07 17:32 51.47595 -0.46526 86 ft 11 kts 271°
2026-05-07 17:33 51.47596 -0.46659 89 ft 13 kts 270°
2026-05-07 17:33 51.47591 -0.46810 88 ft 14 kts 262°
2026-05-07 17:33 51.47584 -0.46980 88 ft 16 kts 270°
2026-05-07 17:33 51.47584 -0.47122 88 ft 12 kts 270°
2026-05-07 17:34 51.47583 -0.47264 88 ft 14 kts 270°
2026-05-07 17:34 51.47583 -0.47426 88 ft 15 kts 270°
2026-05-07 17:34 51.47582 -0.47607 88 ft 17 kts 270°
2026-05-07 17:34 51.47581 -0.47805 87 ft 19 kts 269°
2026-05-07 17:35 51.47580 -0.48019 86 ft 20 kts 269°
2026-05-07 17:35 51.47579 -0.48218 90 ft 18 kts 269°
2026-05-07 17:35 51.47529 -0.48357 88 ft 8 kts 210°
2026-05-07 17:35 51.47479 -0.48407 88 ft 9 kts 222°
2026-05-07 17:36 51.47423 -0.48472 90 ft 11 kts 193°
2026-05-07 17:36 51.47342 -0.48476 86 ft 13 kts 180°
2026-05-07 17:36 51.47255 -0.48475 86 ft 9 kts 180°
2026-05-07 17:36 51.47234 -0.48512 90 ft 5 kts 255°
2026-05-07 17:37 51.47234 -0.48577 90 ft 5 kts 271°
2026-05-07 17:37 51.47234 -0.48582 87 ft 0 kts 271°